This demonstration page uses our WeatherBlox Daily Observations layout. Learn more.

Hourly Observations for November 23, 2016

Temp ( °F °C ) Dew Point ( °F °C ) Humidity (%) Winds ( mph kmh ) Pressure ( in mb ) Visibility ( mi km ) Precip ( " mm )
12:15 am 00:15 Clear 28 -2 23 -5 80 80 undefined N/A 30.36 1028 10 16.09344 0 0
12:35 am 00:35 Clear 34 1 25 -4 70 70 undefined N/A 30.36 1028 10 16.09344 0 0
12:55 am 00:55 Clear 32 0 25 -4 75 75 undefined N/A 30.36 1028 10 16.09344 0 0
1:15 am 01:15 Clear 32 0 25 -4 75 75 undefined N/A 30.36 1028 10 16.09344 0 0
1:35 am 01:35 Clear 28 -2 23 -5 80 80 undefined N/A 30.36 1028 10 16.09344 0 0
1:55 am 01:55 Clear 27 -3 23 -5 86 86 undefined N/A 30.36 1028 10 16.09344 0 0
2:15 am 02:15 Clear 30 -1 25 -4 80 80 undefined N/A 30.36 1028 10 16.09344 0 0
2:35 am 02:35 Clear 30 -1 23 -5 75 75 Calm 30.36 1028 10 16.09344 0 0
2:55 am 02:55 Clear 28 -2 25 -4 86 86 undefined N/A 30.36 1028 10 16.09344 0 0
3:15 am 03:15 Clear 28 -2 23 -5 80 80 undefined N/A 30.36 1028 10 16.09344 0 0
3:35 am 03:35 Clear 28 -2 25 -4 86 86 undefined N/A 30.36 1028 10 16.09344 0 0
3:55 am 03:55 Clear 30 -1 23 -5 75 75 NNW 5 7 30.36 1028 10 16.09344 0 0
4:15 am 04:15 Clear 30 -1 25 -4 80 80 NNW 3 6 30.36 1028 10 16.09344 0 0
4:35 am 04:35 Clear 30 -1 23 -5 75 75 undefined N/A 30.39 1029 10 16.09344 0 0
4:55 am 04:55 Clear 30 -1 23 -5 75 75 undefined N/A 30.36 1028 10 16.09344 0 0
5:15 am 05:15 Clear 28 -2 23 -5 80 80 undefined N/A 30.36 1028 10 16.09344 0 0
5:35 am 05:35 Clear 28 -2 23 -5 80 80 undefined N/A 30.36 1028 10 16.09344 0 0
5:55 am 05:55 Clear 27 -3 23 -5 86 86 Calm 30.39 1029 10 16.09344 0 0
6:15 am 06:15 Clear 27 -3 23 -5 86 86 SW 3 6 30.39 1029 10 16.09344 0 0
6:35 am 06:35 Clear 28 -2 23 -5 80 80 SSW 5 7 30.39 1029 10 16.09344 0 0
6:55 am 06:55 Clear 27 -3 23 -5 86 86 SW 3 6 30.39 1029 10 16.09344 0 0
7:15 am 07:15 Sunny 27 -3 23 -5 86 86 WSW 3 6 30.39 1029 10 16.09344 0 0
7:35 am 07:35 Sunny 28 -2 23 -5 80 80 undefined N/A 30.39 1029 10 16.09344 0 0
7:55 am 07:55 Sunny 30 -1 27 -3 86 86 undefined N/A 30.39 1029 10 16.09344 0 0
8:15 am 08:15 Sunny 32 0 27 -3 80 80 undefined N/A 30.39 1029 10 16.09344 0 0
8:35 am 08:35 Sunny 32 0 28 -2 87 87 undefined N/A 30.39 1029 10 16.09344 0 0
8:55 am 08:55 Sunny 36 2 28 -2 75 75 undefined N/A 30.39 1029 10 16.09344 0 0
9:15 am 09:15 Sunny 37 3 28 -2 70 70 undefined N/A 30.39 1029 10 16.09344 0 0
9:35 am 09:35 Sunny 41 5 28 -2 61 61 undefined N/A 30.39 1029 10 16.09344 0 0
9:55 am 09:55 Sunny 43 6 27 -3 53 53 undefined N/A 30.42 1030 10 16.09344 0 0
10:15 am 10:15 Sunny 43 6 27 -3 53 53 undefined N/A 30.42 1030 10 16.09344 0 0
10:35 am 10:35 Sunny 45 7 27 -3 49 49 undefined N/A 30.39 1029 10 16.09344 0 0
10:55 am 10:55 Sunny 45 7 27 -3 49 49 undefined N/A 30.39 1029 10 16.09344 0 0
11:15 am 11:15 Sunny 46 8 27 -3 46 46 undefined N/A 30.36 1028 10 16.09344 0 0
11:35 am 11:35 Sunny 46 8 25 -4 43 43 undefined N/A 30.36 1028 10 16.09344 0 0
11:55 am 11:55 Sunny 48 9 25 -4 40 40 SSE 3 6 30.36 1028 10 16.09344 0 0
12:15 pm 12:15 Sunny 50 10 25 -4 37 37 Calm 30.33 1027 10 16.09344 0 0
12:35 pm 12:35 Sunny 50 10 25 -4 37 37 SW 5 7 30.33 1027 10 16.09344 0 0
12:55 pm 12:55 Sunny 50 10 25 -4 37 37 Calm 30.33 1027 10 16.09344 0 0
1:15 pm 13:15 Sunny 50 10 23 -5 35 35 ESE 3 6 30.3 1026 10 16.09344 0 0
1:35 pm 13:35 Sunny 52 11 25 -4 35 35 Calm 30.3 1026 10 16.09344 0 0
1:55 pm 13:55 Sunny 52 11 27 -3 38 38 S 3 6 30.3 1026 10 16.09344 0 0
2:15 pm 14:15 Sunny 52 11 27 -3 38 38 Calm 30.3 1026 10 16.09344 0 0
2:35 pm 14:35 Sunny 52 11 25 -4 35 35 undefined N/A 30.3 1026 10 16.09344 0 0
2:55 pm 14:55 Sunny 50 10 25 -4 37 37 SE 5 7 30.3 1026 10 16.09344 0 0
3:15 pm 15:15 Sunny 50 10 25 -4 37 37 SSE 3 6 30.3 1026 10 16.09344 0 0
3:35 pm 15:35 Sunny 50 10 27 -3 40 40 SSW 7 11 30.3 1026 10 16.09344 0 0
3:55 pm 15:55 Sunny 50 10 25 -4 37 37 S 6 9 30.3 1026 10 16.09344 0 0
4:15 pm 16:15 Sunny 50 10 25 -4 37 37 undefined N/A 30.3 1026 10 16.09344 0 0
4:35 pm 16:35 Mostly Cloudy 50 10 23 -5 35 35 undefined N/A 30.3 1026 10 16.09344 0 0
4:55 pm 16:55 Mostly Cloudy 50 10 25 -4 37 37 undefined N/A 30.3 1026 10 16.09344 0 0
5:15 pm 17:15 Mostly Cloudy with Light Rain 48 9 30 -1 50 50 undefined N/A 30.3 1026 10 16.09344 0 0
5:35 pm 17:35 Clear 48 9 27 -3 43 43 undefined N/A 30.3 1026 10 16.09344 0 0
5:55 pm 17:55 Partly Cloudy 48 9 28 -2 46 46 undefined N/A 30.3 1026 10 16.09344 0 0
6:15 pm 18:15 Mostly Cloudy 48 9 27 -3 43 43 undefined N/A 30.3 1026 10 16.09344 0 0
6:35 pm 18:35 Mostly Cloudy 48 9 27 -3 43 43 undefined N/A 30.3 1026 10 16.09344 0 0
6:55 pm 18:55 Partly Cloudy 48 9 27 -3 43 43 undefined N/A 30.3 1026 10 16.09344 0 0
7:15 pm 19:15 Partly Cloudy 46 8 28 -2 50 50 undefined N/A 30.3 1026 10 16.09344 0 0
7:35 pm 19:35 Clear 46 8 28 -2 50 50 undefined N/A 30.3 1026 10 16.09344 0 0
7:55 pm 19:55 Partly Cloudy 46 8 28 -2 50 50 undefined N/A 30.3 1026 10 16.09344 0 0
8:15 pm 20:15 Partly Cloudy 46 8 28 -2 50 50 undefined N/A 30.3 1026 10 16.09344 0 0
8:35 pm 20:35 Clear 46 8 27 -3 46 46 undefined N/A 30.3 1026 10 16.09344 0 0
8:55 pm 20:55 Clear 46 8 27 -3 46 46 undefined N/A 30.27 1025 10 16.09344 0 0
9:15 pm 21:15 Clear 43 6 32 0 66 66 undefined N/A 30.3 1026 10 16.09344 0 0
9:35 pm 21:35 Clear 43 6 30 -1 61 61 undefined N/A 30.3 1026 10 16.09344 0 0
9:55 pm 21:55 Clear 43 6 32 0 66 66 undefined N/A 30.3 1026 10 16.09344 0 0
10:15 pm 22:15 Clear 43 6 30 -1 61 61 undefined N/A 30.27 1025 10 16.09344 0 0
10:35 pm 22:35 Clear 43 6 30 -1 61 61 undefined N/A 30.3 1026 10 16.09344 0 0
10:55 pm 22:55 Clear 41 5 30 -1 66 66 undefined N/A 30.27 1025 10 16.09344 0 0
11:15 pm 23:15 Clear 41 5 32 0 70 70 undefined N/A 30.27 1025 10 16.09344 0 0
11:35 pm 23:35 Clear 41 5 30 -1 66 66 undefined N/A 30.27 1025 10 16.09344 0 0
11:55 pm 23:55 Clear 39 4 30 -1 70 70 undefined N/A 30.27 1025 10 16.09344 0 0

Powered by AerisWeather